This is the latest recevied weather packets stored in our database for station/object N2XP-3. If no packets are shown the sender has not sent any weather packets the latest 10 day(s).
| Time | Temp. | Humidity | Pressure | Rain* | Wind** | Luminosity | Snow |
|---|---|---|---|---|---|---|---|
| 1778037217 | 18.33° C | 68% | 1007.8 hPa | 0 mm | 1.79 m/s, 243° | - | - |
| 1778036918 | 18.33° C | 67% | 1007.8 hPa | 0 mm | 2.24 m/s, 215° | - | - |
| 1778036657 | 18.33° C | 66% | 1007.8 hPa | 0 mm | 0.89 m/s, 297° | - | - |
| 1778036615 | 18.33° C | 66% | 1007.8 hPa | 0 mm | 0.89 m/s, 297° | - | - |
| 1778036315 | 18.89° C | 65% | 1007.8 hPa | 0 mm | 1.79 m/s, 300° | - | - |
| 1778036016 | 18.89° C | 65% | 1007.8 hPa | 0 mm | 0.89 m/s, 246° | - | - |
| 1778035712 | 18.89° C | 64% | 1007.8 hPa | 0 mm | 1.34 m/s, 270° | - | - |
| 1778035405 | 18.89° C | 63% | 1007.7 hPa | 0 mm | 0.89 m/s, 326° | - | - |
| 1778035289 | 18.89° C | 63% | 1007.7 hPa | 0 mm | 1.34 m/s, 246° | - | - |
| 1778035106 | 18.89° C | 63% | 1007.7 hPa | 0 mm | 1.34 m/s, 246° | - | - |
| 1778034798 | 18.89° C | 62% | 1007.7 hPa | 0 mm | 1.79 m/s, 245° | - | - |
| 1778034550 | 18.89° C | 61% | 1007.7 hPa | 0 mm | 0.89 m/s, 249° | - | - |
| 1778034499 | 18.89° C | 61% | 1007.7 hPa | 0 mm | 0.89 m/s, 249° | - | - |
| 1778034199 | 19.44° C | 60% | 1007.7 hPa | 0 mm | 1.34 m/s, 259° | - | - |
| 1778033891 | 19.44° C | 59% | 1007.6 hPa | 0 mm | 1.79 m/s, 245° | - | - |
| 1778033591 | 19.44° C | 59% | 1007.6 hPa | 0 mm | 1.79 m/s, 228° | - | - |
| 1778033292 | 19.44° C | 59% | 1007.6 hPa | 0 mm | 2.24 m/s, 233° | - | - |
| 1778032986 | 19.44° C | 58% | 1007.5 hPa | 0 mm | 2.68 m/s, 233° | - | - |
| 1778032687 | 19.44° C | 58% | 1007.5 hPa | 0 mm | 0.89 m/s, 231° | - | - |
| 1778032383 | 20° C | 58% | 1007.5 hPa | 0 mm | 0.89 m/s, 143° | - | - |
| 1778032079 | 20° C | 57% | 1007.4 hPa | 0 mm | 1.79 m/s, 266° | - | - |
| 1778031780 | 20° C | 58% | 1007.5 hPa | 0 mm | 1.79 m/s, 277° | - | - |
| 1778031477 | 20° C | 57% | 1007.3 hPa | 0 mm | 1.34 m/s, 257° | - | - |
| 1778030889 | 20° C | 56% | 1007.3 hPa | 0 mm | 1.34 m/s, 15° | - | - |
| 1778030573 | 20° C | 56% | 1007.3 hPa | 0 mm | 1.34 m/s, 15° | - | - |
* Rain latest hour (hover to see other rain measurements)
** Current wind speed in m/s (hover to see current wind gust speed)